Weather History for KMWO - January, 2014

Change the Weather History Date:

Sunday, January 19, 2014

  Actual Average (KDAY) Record (KDAY)
Temperature  
Mean Temperature 28 °F 27 °F  
Max Temperature 35 °F 35 °F 68 °F (1907)
Min Temperature 22 °F 20 °F -25 °F (1994)
Degree Days  
Heating Degree Days 36 38  
Month to date heating degree days 716  
Since 1 July heating degree days 2875  
Cooling Degree Days 0 0  
Month to date cooling degree days 0  
Year to date cooling degree days 0  
Moisture  
Dew Point 20 °F    
Average Humidity 69    
Maximum Humidity 84    
Minimum Humidity 55    
Precipitation  
Precipitation 0.00 in 0.08 in 1.28 in (1900)
Month to date precipitation 1.75  
Year to date precipitation 1.75  
Snow  
Snow 0.00 in 0.20 in 4.50 in (1956)
Month to date snowfall 4.8  
Since 1 July snowfall 10.3  
Snow Depth -    
Sea Level Pressure  
Sea Level Pressure 29.85 in    
Wind  
Wind Speed 8 mph (WSW)    
Max Wind Speed 22 mph    
Max Gust Speed 25 mph    
Visibility 10 miles    
Events Snow    
T = Trace of Precipitation, MM = Missing Value Source: NWS Daily Summary

Daily Weather History Graph

Daily Weather History Graph

Search for Another Location

Airport or City:

Trip Planner

Search our weather history database for the weather conditions in past years. The results will help you decide how hot, cold, wet, or windy it might be!

Date:

Astronomy

Jan. 19, 2014 Rise Set
Actual Time 7:54 AM EST 5:42 PM EST
Civil Twilight 7:25 AM EST 6:11 PM EST
Nautical Twilight 6:52 AM EST 6:44 PM EST
Astronomical Twilight 6:20 AM EST 7:16 PM EST
Moon 9:18 PM EST (1/19) 9:25 AM EST (1/19)
Length of Visible Light 10h 46m
Length of Day
9h 48m
Waning Gibbous, 89% of the Moon is Illuminated
Jan 19
Waning Gibbous
Jan 24
Last Quarter
Jan 30
New
Feb 6
First Quarter
Feb 14
Full

Hourly Weather History & Observations

Time (EST) Temp. Windchill Dew Point Humidity Pressure Visibility Wind Dir Wind Speed Gust Speed Precip Events Conditions
12:15 AM 27.9 °F - 23.0 °F 82% 29.78 in 10.0 mi Calm Calm - N/A   Overcast
12:35 AM 27.9 °F - 23.4 °F 83% 29.78 in 10.0 mi Calm Calm - N/A Snow Light Snow
12:55 AM 27.9 °F - 23.5 °F 84% 29.77 in 10.0 mi Calm Calm - N/A   Overcast
1:15 AM 27.9 °F - 23.5 °F 84% 29.77 in 10.0 mi Calm Calm - N/A   Overcast
1:35 AM 27.9 °F - 23.4 °F 83% 29.77 in 10.0 mi Calm Calm - N/A   Overcast
1:55 AM 27.9 °F - 23.4 °F 83% 29.77 in 10.0 mi Calm Calm - N/A   Overcast
2:15 AM 27.9 °F - 23.4 °F 83% 29.78 in 10.0 mi Calm Calm - N/A   Overcast
2:35 AM 27.9 °F - 23.4 °F 83% 29.79 in 10.0 mi Calm Calm - N/A   Overcast
2:55 AM 27.9 °F - 23.4 °F 83% 29.79 in 10.0 mi Calm Calm - N/A   Overcast
3:15 AM 27.9 °F - 23.4 °F 83% 29.80 in 10.0 mi Calm Calm - N/A   Overcast
3:35 AM 27.9 °F - 23.4 °F 83% 29.80 in 10.0 mi Calm Calm - N/A   Overcast
3:55 AM 27.9 °F 21.5 °F 23.0 °F 82% 29.81 in 10.0 mi West 5.8 mph - N/A   Overcast
4:15 AM 27.9 °F 21.5 °F 23.0 °F 82% 29.81 in 10.0 mi West 5.8 mph - N/A   Overcast
4:35 AM 27.9 °F 21.5 °F 23.0 °F 82% 29.82 in 10.0 mi West 5.8 mph - N/A   Overcast
4:55 AM 27.9 °F 19.8 °F 22.6 °F 81% 29.84 in 10.0 mi WNW 8.1 mph - N/A   Overcast
5:15 AM 27.9 °F 19.8 °F 22.1 °F 79% 29.85 in 10.0 mi NW 8.1 mph - N/A   Overcast
5:35 AM 27.9 °F 20.6 °F 22.1 °F 79% 29.85 in 10.0 mi WNW 6.9 mph - N/A   Overcast
5:55 AM 27.9 °F 18.4 °F 21.2 °F 76% 29.85 in 10.0 mi NW 10.4 mph 16.1 mph N/A   Overcast
6:15 AM 27.9 °F 18.4 °F 20.7 °F 74% 29.87 in 10.0 mi NW 10.4 mph - N/A   Overcast
6:35 AM 27.9 °F 18.4 °F 20.8 °F 75% 29.89 in 10.0 mi WNW 10.4 mph - N/A   Overcast
6:55 AM 25.3 °F 16.7 °F 18.3 °F 75% 29.92 in 10.0 mi WNW 8.1 mph 17.3 mph N/A   Overcast
7:15 AM 25.3 °F 16.7 °F 18.1 °F 74% 29.92 in 10.0 mi WNW 8.1 mph - N/A   Overcast
7:35 AM 25.3 °F 14.1 °F 17.6 °F 72% 29.93 in 10.0 mi West 12.7 mph 17.3 mph N/A   Overcast
7:55 AM 25.3 °F 14.7 °F 17.6 °F 72% 29.94 in 10.0 mi WNW 11.5 mph 17.3 mph N/A   Overcast
8:15 AM 25.3 °F 16.0 °F 17.6 °F 72% 29.95 in 10.0 mi West 9.2 mph - N/A   Overcast
8:35 AM 22.8 °F 11.5 °F 15.4 °F 73% 29.94 in 10.0 mi West 11.5 mph 16.1 mph N/A   Overcast
8:55 AM 22.8 °F 12.9 °F 15.3 °F 73% 29.94 in 10.0 mi West 9.2 mph - N/A   Overcast
9:15 AM 22.8 °F 10.9 °F 15.6 °F 74% 29.96 in 10.0 mi West 12.7 mph 20.7 mph N/A   Overcast
9:35 AM 22.8 °F 11.5 °F 15.4 °F 73% 29.98 in 10.0 mi West 11.5 mph 17.3 mph N/A   Overcast
9:55 AM 23.0 °F 9.6 °F 15.3 °F 72% 29.99 in 10.0 mi West 16.1 mph 20.7 mph N/A   Overcast
10:15 AM 22.8 °F 10.4 °F 15.3 °F 73% 29.98 in 10.0 mi WSW 13.8 mph - N/A   Overcast
10:35 AM 22.8 °F 11.5 °F 14.9 °F 72% 29.98 in 7.0 mi WSW 11.5 mph 16.1 mph N/A   Mostly Cloudy
10:55 AM 25.2 °F 13.3 °F 17.2 °F 72% 29.97 in 10.0 mi SW 13.8 mph - N/A   Overcast
11:15 AM 24.6 °F 12.7 °F 15.8 °F 69% 29.97 in 10.0 mi SW 13.8 mph - N/A   Mostly Cloudy
11:35 AM 25.3 °F 12.6 °F 16.0 °F 68% 29.97 in 10.0 mi WSW 16.1 mph 21.9 mph N/A   Scattered Clouds
11:55 AM 27.0 °F 15.2 °F 17.2 °F 67% 29.96 in 10.0 mi WSW 15.0 mph - N/A   Scattered Clouds
12:15 PM 27.9 °F 15.5 °F 18.0 °F 66% 29.95 in 10.0 mi WSW 17.3 mph 21.9 mph N/A   Clear
12:35 PM 27.9 °F 16.3 °F 17.1 °F 64% 29.94 in 10.0 mi SW 15.0 mph 20.7 mph N/A   Clear
12:55 PM 28.0 °F 16.1 °F 17.2 °F 64% 29.93 in 10.0 mi SW 16.1 mph 20.7 mph N/A   Clear
1:15 PM 29.5 °F 18.0 °F 18.3 °F 63% 29.91 in 10.0 mi SW 16.1 mph - N/A   Clear
1:35 PM 32.4 °F 20.9 °F 20.5 °F 62% 29.90 in 10.0 mi SW 18.4 mph - N/A   Clear
1:55 PM 32.5 °F 22.3 °F 20.1 °F 60% 29.89 in 10.0 mi SW 15.0 mph 20.7 mph N/A   Clear
2:15 PM 32.5 °F 21.9 °F 18.9 °F 57% 29.88 in 10.0 mi SW 16.1 mph 24.2 mph N/A   Clear
2:35 PM 32.5 °F 21.5 °F 18.0 °F 55% 29.88 in 10.0 mi WSW 17.3 mph 20.7 mph N/A   Clear
2:55 PM 32.5 °F 21.5 °F 19.2 °F 58% 29.88 in 10.0 mi SW 17.3 mph - N/A   Clear
3:15 PM 32.5 °F 21.5 °F 17.8 °F 55% 29.87 in 10.0 mi SW 17.3 mph - N/A   Clear
3:35 PM 32.5 °F 21.9 °F 18.1 °F 55% 29.87 in 10.0 mi SW 16.1 mph - N/A   Clear
3:55 PM 32.5 °F 21.5 °F 18.7 °F 57% 29.86 in 10.0 mi SW 17.3 mph 23.0 mph N/A   Clear
4:15 PM 32.5 °F 21.2 °F 18.0 °F 55% 29.87 in 10.0 mi SW 18.4 mph 23.0 mph N/A   Clear
4:35 PM 32.5 °F 21.2 °F 18.3 °F 56% 29.86 in 10.0 mi SW 18.4 mph 25.3 mph N/A   Clear
4:55 PM 32.5 °F 20.2 °F 18.3 °F 56% 29.85 in 10.0 mi SW 21.9 mph - N/A   Clear
5:15 PM 32.5 °F 21.9 °F 19.2 °F 58% 29.85 in 10.0 mi SW 16.1 mph 24.2 mph N/A   Clear
5:35 PM 32.5 °F 21.5 °F 19.6 °F 59% 29.85 in 10.0 mi SW 17.3 mph 24.2 mph N/A   Clear
5:55 PM 32.5 °F 22.7 °F 20.3 °F 61% 29.84 in 10.0 mi SW 13.8 mph - N/A   Clear
6:15 PM 32.5 °F 21.9 °F 19.9 °F 60% 29.83 in 10.0 mi SSW 16.1 mph - N/A   Clear
6:35 PM 32.5 °F 21.5 °F 19.9 °F 60% 29.82 in 10.0 mi SW 17.3 mph - N/A   Clear
6:55 PM 32.5 °F 21.9 °F 19.9 °F 60% 29.82 in 10.0 mi SSW 16.1 mph - N/A   Clear
7:15 PM 32.5 °F 21.9 °F 20.3 °F 61% 29.81 in 10.0 mi SSW 16.1 mph 20.7 mph N/A   Clear
7:55 PM 32.5 °F 21.5 °F 21.0 °F 63% 29.80 in 10.0 mi SW 17.3 mph 25.3 mph N/A   Clear
8:15 PM 32.5 °F 21.9 °F 20.8 °F 62% 29.78 in 10.0 mi SSW 16.1 mph - N/A   Clear
8:35 PM 33.8 °F 23.9 °F 21.4 °F 60% 29.77 in 10.0 mi SSW 15.0 mph 23.0 mph N/A   Clear
8:55 PM 35.1 °F 25.5 °F 22.5 °F 60% 29.77 in 10.0 mi SSW 15.0 mph - N/A   Clear
9:15 PM 35.1 °F 25.2 °F 22.6 °F 61% 29.77 in 10.0 mi SW 16.1 mph 19.6 mph N/A   Clear
9:35 PM 35.1 °F 24.8 °F 22.5 °F 60% 29.77 in 10.0 mi SW 17.3 mph 21.9 mph N/A   Clear
9:55 PM 35.1 °F 25.5 °F 22.5 °F 60% 29.78 in 10.0 mi SW 15.0 mph - N/A   Clear
10:15 PM 34.7 °F 25.5 °F 22.6 °F 61% 29.77 in 10.0 mi SW 13.8 mph - N/A   Clear
10:35 PM 35.1 °F 25.2 °F 23.4 °F 62% 29.77 in 10.0 mi SW 16.1 mph - N/A   Clear
10:55 PM 34.9 °F 25.3 °F 22.8 °F 61% 29.77 in 10.0 mi SW 15.0 mph - N/A   Clear
11:15 PM 35.1 °F 25.9 °F 22.8 °F 61% 29.76 in 10.0 mi SW 13.8 mph - N/A   Clear
11:35 PM 35.1 °F 26.4 °F 22.6 °F 61% 29.76 in 10.0 mi SW 12.7 mph - N/A   Clear
11:55 PM 35.1 °F 26.4 °F 22.5 °F 60% 29.75 in 10.0 mi SW 12.7 mph - N/A   Clear